Location: Gaast
(52.9002°N, 5.8891°E)
Time: 12:27:08
(UTC+00:00)

Iridium 4 Rocket - Pass Details

Date: 18 November 2025
Orbit: 579 x 888 km, 86.9° (Epoch: 10 December)

Event Time Altitude Azimuth Distance (km) Brightness Sun altitude
Rises 16:13:13 0° 181° (S) 3,204 7.1 -5.6°
Reaches altitude 10° 16:15:38 10° 181° (S) 2,234 6.3 -5.9°
Maximum altitude 16:20:35 89° 99° (E) 695 3.3 -6.6°
Drops below altitude 10° 16:25:09 10° 4° (N) 2,060 5.5 -7.2°
Sets 16:27:18 0° 4° (N) 2,936 6.3 -7.5°
